User: anonymous   Login
Location: Squirrel Cove
(50.1074°N, 124.9139°W)
Time: 11:15:47
(UTC-07:00)
Language:

PCSat - Orbit

View from above orbital plane
View from above orbital plane
View from above satellite
View from above satellite

Ground track
Ground track

The orbit data is extracted from the following two-line orbital elements,

1 26931U 01043C   22143.07592676  .00000245  00000-0  12523-3 0  9990
2 26931  67.0496 123.9006 0007896 267.2327  92.7871 14.30699934 77775
Epoch (UTC): 23 May 2022 01:49:20
Eccentricity: 0.0007896
inclination: 67.0496°
perigee height: 784 km
apogee height: 795 km
right ascension of ascending node: 123.9006°
argument of perigee: 267.2327°
revolutions per day: 14.30699934
mean anomaly at epoch: 92.7871°
orbit number at epoch: 7777

The dashed part of the orbit path shows where the satellite is in the earth's shadow,  

DLR